Starlink 33677

operational
NORAD ID: 63410 Int'l Des: 2025-065 Owner: SPXS Country: US Constellation: starlink
LEOCIRCULAR

Starlink 33677について

説明を読み込み中...

リアルタイム位置

3D地球を読み込み中...

次回通過

高度履歴

Altitude vs Time

uPlot chart will show altitude changes over time

軌道要素

1 63410U 25065M 25351.91061702 .00016515 00000-0 60830-3 0 9992
2 63410 42.9989 208.8512 0001720 269.7342 90.3312 15.27581304 40330
Epoch: Dec 17, 2025 • Age: 12 hours

現在のステータス

高度 493.1 km
速度 7.62 km/s
衛星直下点 -37.88°S, 153.72°W
打ち上げ日 Mar 31, 2025
運用期間 0.7 years
タイプ internet

技術仕様

分類 Payload
質量 575.00 kg
乾燥質量 530.00 kg
総質量 575.00 kg
長さ 0.30 m
直径 4.10 m
スパン 29.00 m
形状 Box + pan
製造者 SPXS
バスタイプ Starlink V2MO
フェーズステータス In Orbit
所有者/国 SPXS/US

大規模コンステレーション

Loading constellations...